Tracking 17145 objects as of 30-May-2015
HD Live streaming from Space Station

COSMOS 2251 DEB

Track COSMOS 2251 DEB now!
10-day predictions
COSMOS 2251 DEB is classified as:


NORAD ID: 34131
Int'l Code: 1993-036LC
Perigee: 713.8 km
Apogee: 726.4 km
Inclination: 74.1 °
Period: 99.0 minutes
Semi major axis: 7091 km
RCS: 0.018 m2 (small)
Launch date: June 16, 1993
Source: Commonwealth of Independent States (former USSR) (CIS)

Note: This is SATELLITE DEBRIS
Your satellite tracking list
Your tracking list is empty





NASA's NSSDC Master Catalog

Two Line Element Set (TLE):
1 34131U 93036LC  15149.37880630  .00004573  00000-0  10929-2 0  9990
2 34131 074.1228 113.9681 0008892 319.1462 195.8709 14.53881882330575

Source of the keplerian elements: AFSPC

N2YO: 299